Location: Axtheid
(49.6213°N, 11.8205°E)
Time: 04:23:49
(UTC+00:00)

NOSS 3-1 (C) - Pass Details

Date: 24 January 2021
Orbit: 723 x 1485 km, 63.3° (Epoch: 22 February)

Event Time Altitude Azimuth Distance (km) Brightness Sun altitude
Rises 16:21:35 0° 314° (NW) 3,776 6.9 -4.7°
Reaches altitude 10° 16:24:08 10° 320° (NW) 2,928 6.2 -5.0°
Maximum altitude 16:31:02 51° 36° (NE) 1,523 4.2 -6.1°
Drops below altitude 10° 16:39:10 10° 110° (ESE) 3,444 5.9 -7.3°
Sets 16:42:23 0° 116° (ESE) 4,492 6.5 -7.8°
